Regional Weather Roundup
Issued by NWS Charleston, SC

Current Version | Previous Version | Graphics & Text | Print | Product List | Glossary On
Versions: 1 2 3 4 5 6 7 8 9 10 11 12 13 14 15 16 17 18 19 20 21 22 23 24 25 26 27 28 29 30 31 32 33 34 35 36 37 38 39 40 41 42 43 44 45 46 47 48 49 50
000 ASUS42 KCHS 251112 RWRCHS REGIONAL WEATHER ROUNDUP NATIONAL WEATHER SERVICE CHARLESTON SC 700 AM EDT SUN JUN 25 2017 NOTE: "FAIR" INDICATES FEW OR NO CLOUDS BELOW 12,000 FEET WITH NO SIGNIFICANT WEATHER AND/OR OBSTRUCTIONS TO VISIBILITY. NOT ALL STATIONS ARE QUALITY CONTROLLED. USE DATA WITH CAUTION... ESPECIALLY DEWPOINT OBSERVATIONS. SCZ027-030-031-034>040-042>050-251200- ...SOUTHEAST SOUTH CAROLINA... CITY SKY/WX TMP DP RH WIND PRES REMARKS N CHARLESTON PTCLDY 78 73 84 W5 30.05R WATERFRONT PRK N/A 78 76 94 VRB3 30.02R JOHNS ISLAND FAIR 77 77 100 NW5 30.05R PINOPOLIS N/A 77 75 94 W8 29.97S MONCKS CORNER FAIR 73 72 94 CALM 30.05R SUMMERVILLE PTSUNNY 73 72 94 W3 30.07R BEAUFORT MCAS PTCLDY 78 76 93 CALM 30.05R BEAUFORT ARPT FAIR 77 75 94 NW5 30.05R FOG HILTON HEAD IS CLEAR 77 77 100 CALM 30.05R WALTERBORO CLOUDY 73 72 94 W3 30.07R ALLENDALE FAIR 75 73 94 CALM 30.05R ...SOUTHERN MIDLANDS AND PEE DEE... CITY SKY/WX TMP DP RH WIND PRES REMARKS GEORGETOWN FAIR 73 73 100 W3 30.05S KINGSTREE CLOUDY 73 72 94 CALM 30.04S ORANGEBURG CLOUDY 74 73 97 SW6 30.07R BARNWELL FAIR 75 75 100 CALM 30.06S AIKEN FAIR 70 70 100 SW3 30.11R MANNING FAIR 73 73 100 W5 30.04S COLUMBIA CLOUDY 73 70 90 W3 30.05R SUMTER MOCLDY 73 71 92 W3 30.02S FLORENCE CLOUDY 75 74 96 CALM 30.04R MYRTLE BEACH PTCLDY 75 73 94 W6 30.04 N MYRTLE BEACH MOCLDY 76 74 93 CALM 30.03R $$ GAZ063-065-086>088-099>101-113>116-118-119-134>141-150-251200- ...SOUTHEAST GEORGIA... CITY SKY/WX TMP DP RH WIND PRES REMARKS SAVANNAH ARPT MOCLDY 76 73 91 CALM 30.05S HUNTER AAF CLEAR 75 74 97 CALM 30.03R FORT STEWART CLEAR 74 72 94 CALM 30.03R STATESBORO CLOUDY 76 32 20 CALM 30.05R SYLVANIA CLOUDY 76 76 100 CALM 30.06S CLAXTON FAIR 73 73 98 CALM 30.05S ...CSRA...CENTRAL AND FAR SOUTHEAST GEORGIA... CITY SKY/WX TMP DP RH WIND PRES REMARKS THOMSON CLEAR 69 68 98 CALM 30.13R AUGUSTA-BUSH CLOUDY 75 72 90 N3 30.06R AUGUSTA-DANIEL CLOUDY 74 67 78 N6 30.08R SWAINSBORO CLOUDY 73 73 100 CALM 30.07R FOG VIDALIA PTCLDY 75 73 94 W3 30.07R EASTMAN CLOUDY 77 77 100 CALM 30.09S HAZLEHURST N/A 77 77 100 CALM 30.05S ALMA CLEAR 75 74 96 CALM 30.07R WAYCROSS CLOUDY 77 77 100 CALM 30.08R JESUP FAIR 73 70 88 CALM 30.07R BAXLEY FAIR 73 73 100 CALM 30.06R BRUNSWICK CLEAR 77 75 94 SW6 30.08R SAINT SIMONS CLEAR 78 75 90 SW8 30.07R $$ SCZ027-028-034-036>038-045-046-048>050-GAZ119-141-251200- ...LAKE AND SUPPLEMENTAL COASTAL OBSERVATIONS... STATION/POSITION TIME TEMP WIND PRES WAVE SWELL AIR SEA DIR/SP/G HT/PER HT/PER/DIR (UTC) (F) (DEG/KT/KT) (MB) (FT/S) (FT/S/D) WINYAH BAY NOT AVBL LAKE MURRAY 1020 74 250/ 5/ 8 1016.9 ACE BASIN NERRS NOT AVBL FORT PULASKI 1048 78 84 240/ 3/ 4 1017.9R SAPELO ISLAND 1000 77 200/ 6 1018.0 $$ ANZ835-935-AMZ111-154-330-350-352-354-370-450-454-472-251200- ...C-MAN AND BUOY OBSERVATIONS... STATION/POSITION TIME TEMP WIND PRES WAVE SWELL AIR SEA DIR/SP/G HT/PER HT/PER/DIR (UTC) (F) (DEG/KT/KT) (MB) (FT/S) (FT/S/D) BUOY 41004 1050 81 81 220/ 16/ 21 1016.9R 5/ 5 2/140/ 8 BUOY 41008 1050 81 82 210/ 12/ 14 1017.5R 3/ 5 2/100/ 8 FOLLY BEACH CMAN 1000 81 230/ 9/ 12 1017.5R CAPERS NEARSHORE 1008 86 83 240/ 14/ 19 1016.6R FRIPP NEARSHORE 1008 82 84 250/ 8/ 12 1016.6R STATION/POSITION TIME TEMP WIND PRES WAVE SWELL AIR SEA DIR/SP/G HT/PER HT/PER/DIR (UTC) (F) (DEG/KT/KT) (MB) (FT/S) (FT/S/D) 5E ST. MARYS GA 1030 79 N/A 3/ 8 FRYING PAN BUOY 1050 80 80 230/ 16/ 21 1016.8S 5/ 6 2/120/ 9 BUOY 41025 1050 79 80 250/ 17/ 21 1016.0R 6/ 7 2/140/ 9 CAPE LOOKOUT NC 1000 78 230/ 8/ 11 1016.1R BUOY 41002 0950 80 80 220/ 12/ 16 1019.8 4/ 6 2/260/ 6 BUOY 41010 1050 82 83 180/ 10/ 12 1019.8R 3/ 8 3/120/ 8 ST AUGUSTINE FL 1100 77 76 260/ 4/ 4 1019.0F $$

USA.gov is the U.S. government's official web portal to all federal, state and local government web resources and services.